Volver al catálogo

SL-8 R/B

ActivoPO
NORAD 10600·ROCKET BODY·🇷🇺 Russia

Lanzado Jan 17, 1978 desde Plesetsk Cosmodrome

Loading…

Próximos Pases (próximas 24 horas)

TLE

ActualizadoSource: Space-Track

Época: Sep 14, 2026, 08:22 UTC

1 10600U 78007B   26257.34914397  .00000141  00000-0  12277-3 0  9999
2 10600  82.9368 282.4222 0047713 186.9369 173.1135 13.78853145446887

Sigue SL-8 R/B en tiempo real con AllMySat

Download on the App Store